FW6744 Weather Reports


time (UTC)temp
C
wind
direction
speed
KPH
gust
KPH
rain 1hr
cm
rain 24hr
cm
rain mn
cm
humidity
%
barometer
mb
20260506232106 21 193 0.0 1.6 0.00 0.25 0.25 77 1005.5
20260506231600 22 208 0.0 3.2 0.00 0.25 0.25 77 1005.5
20260506231054 22 196 0.0 3.2 0.00 0.25 0.25 77 1005.4
20260506230819 22 117 0.0 3.2 0.00 0.25 0.25 76 1005.3
20260506230042 22 166 0.0 4.8 0.00 0.25 0.25 76 1005.5
20260506225537 22 3 0.0 4.8 0.00 0.25 0.25 76 1005.5
20260506225030 21 284 0.0 4.8 0.00 0.25 0.25 76 1005.5
20260506224524 21 8 0.0 4.8 0.00 0.25 0.25 76 1005.6
20260506224240 21 184 1.6 6.4 0.00 0.25 0.25 76 1005.6
20260506223512 21 4 1.6 6.4 0.00 0.25 0.25 75 1005.5
20260506223005 21 217 0.0 8.0 0.00 0.25 0.25 76 1005.5
20260506222500 22 226 0.0 8.0 0.00 0.25 0.25 75 1005.5
20260506221954 22 240 0.0 1.6 0.00 0.25 0.25 75 1005.6
20260506221448 22 231 0.0 6.4 0.00 0.25 0.25 75 1005.5
20260506220942 22 125 1.6 6.4 0.00 0.25 0.25 74 1005.6
20260506220435 22 195 0.0 4.8 0.00 0.25 0.25 75 1005.4
20260506215928 22 259 0.0 3.2 0.00 0.25 0.25 74 1005.6
20260506215647 22 31 0.0 4.8 0.00 0.25 0.25 74 1005.6
20260506214916 22 227 0.0 4.8 0.00 0.25 0.25 74 1005.6
20260506214409 22 231 1.6 9.7 0.00 0.25 0.25 75 1005.6
20260506214135 22 162 1.6 9.7 0.00 0.25 0.25 75 1005.4
20260506213358 22 73 1.6 8.0 0.00 0.25 0.25 74 1005.7
20260506213112 22 270 1.6 8.0 0.00 0.25 0.25 75 1005.6
20260506212346 22 78 0.0 6.4 0.00 0.25 0.25 75 1005.6
20260506211840 22 198 0.0 4.8 0.00 0.25 0.25 75 1005.7
20260506211334 22 20 1.6 4.8 0.00 0.25 0.25 75 1005.6
20260506210832 22 91 1.6 6.4 0.00 0.25 0.25 76 1005.5
20260506210331 22 333 1.6 6.4 0.00 0.25 0.25 77 1005.5
20260506205831 22 292 1.6 9.7 0.00 0.25 0.25 76 1005.5
20260506205331 22 39 1.6 9.7 0.00 0.25 0.25 77 1005.6
20260506204831 22 156 0.0 3.2 0.00 0.25 0.25 79 1005.6
20260506204817 22 221 0.0 4.8 0.00 0.25 0.25 80 1005.8
20260506203830 21 34 0.0 4.8 0.00 0.25 0.25 81 1005.6
20260506203550 21 114 0.0 3.2 0.00 0.25 0.25 81 1005.3
20260506202825 21 67 0.0 3.2 0.00 0.25 0.25 81 1005.5
20260506202325 21 195 0.0 3.2 0.00 0.25 0.25 82 1005.7
20260506201826 21 197 0.0 6.4 0.00 0.25 0.25 81 1005.7
20260506201326 21 185 0.0 6.4 0.00 0.25 0.25 81 1005.8
20260506200826 20 188 0.0 4.8 0.00 0.25 0.25 82 1005.8
20260506200325 20 220 0.0 4.8 0.00 0.25 0.25 82 1005.8
20260506200318 20 175 0.0 4.8 0.00 0.25 0.25 82 1005.8
20260506195326 20 26 0.0 8.0 0.00 0.25 0.25 82 1005.3
20260506194819 20 226 0.0 8.0 0.00 0.25 0.25 83 1005.4
20260506194319 20 343 0.0 3.2 0.00 0.25 0.25 83 1005.1
20260506193819 20 342 0.0 3.2 0.00 0.25 0.25 83 1005.2
20260506193319 20 30 0.0 4.8 0.00 0.25 0.25 84 1005.2
20260506193314 20 22 0.0 4.8 0.00 0.25 0.25 84 1005.2
20260506192320 20 34 0.0 3.2 0.00 0.25 0.25 85 1005.5
20260506191819 19 200 0.0 1.6 0.00 0.25 0.25 85 1005.6
20260506191317 19 117 0.0 3.2 0.00 0.25 0.25 85 1005.8
20260506191046 19 149 0.0 4.8 0.00 0.25 0.25 86 1006.0
20260506190317 19 217 1.6 6.4 0.00 0.25 0.25 86 1006.0
20260506185818 19 211 0.0 6.4 0.00 0.25 0.25 86 1006.3
20260506185756 19 79 0.0 3.2 0.00 0.25 0.25 87 1006.2
20260506184818 18 288 0.0 3.2 0.00 0.25 0.25 86 1006.2
20260506184316 19 161 0.0 3.2 0.00 0.25 0.25 86 1006.1
20260506184038 19 167 0.0 6.4 0.00 0.25 0.25 86 1006.3
20260506183317 19 12 0.0 6.4 0.00 0.25 0.25 85 1006.4
20260506182816 19 162 0.0 6.4 0.00 0.25 0.25 85 1006.4
20260506182318 19 160 0.0 8.0 0.00 0.25 0.25 84 1006.4
20260506182037 19 176 1.6 8.0 0.00 0.25 0.25 84 1006.6
20260506181318 19 223 1.6 4.8 0.00 0.25 0.25 85 1006.9
20260506181038 19 302 0.0 4.8 0.00 0.25 0.25 85 1007.0
20260506180318 19 34 0.0 4.8 0.00 0.25 0.25 85 1006.9
20260506175817 19 229 0.0 6.4 0.00 0.25 0.25 85 1006.9
20260506175317 19 212 0.0 6.4 0.00 0.25 0.25 86 1007.1
20260506174818 19 172 0.0 11.3 0.00 0.25 0.25 86 1006.9
20260506174318 19 214 0.0 11.3 0.00 0.25 0.25 87 1006.9
20260506173816 19 214 0.0 6.4 0.00 0.25 0.25 87 1006.9
20260506173316 18 172 0.0 3.2 0.00 0.25 0.25 88 1006.8
20260506173038 18 61 0.0 1.6 0.00 0.25 0.25 89 1006.8
20260506172318 18 219 0.0 3.2 0.00 0.25 0.25 89 1006.9
20260506171817 18 158 0.0 3.2 0.00 0.25 0.25 88 1006.7
20260506171316 18 214 0.0 3.2 0.00 0.25 0.25 88 1006.7
20260506170816 18 192 0.0 3.2 0.03 0.25 0.25 88 1006.7
20260506170545 18 165 0.0 1.6 0.03 0.25 0.25 89 1007.0
20260506165815 18 167 0.0 3.2 0.03 0.25 0.25 88 1007.3
20260506165316 18 179 0.0 4.8 0.03 0.25 0.25 89 1007.3
20260506165035 18 322 1.6 8.0 0.03 0.25 0.25 88 1007.3
20260506164314 18 230 0.0 8.0 0.03 0.25 0.25 88 1007.6
20260506163810 18 75 0.0 3.2 0.03 0.25 0.25 89 1007.5
20260506163309 18 130 0.0 3.2 0.03 0.25 0.25 90 1007.3
20260506162808 17 175 0.0 1.6 0.03 0.25 0.25 90 1007.5
20260506162307 17 169 0.0 1.6 0.03 0.25 0.25 90 1007.2
20260506161805 17 347 0.0 1.6 0.03 0.25 0.25 91 1007.3
20260506161305 17 281 0.0 4.8 0.03 0.25 0.25 91 1007.2
20260506160759 17 30 0.0 4.8 0.00 0.23 0.23 90 1007.3
20260506160253 17 89 0.0 4.8 0.00 0.23 0.23 90 1007.4
20260506155747 17 165 0.0 4.8 0.00 0.23 0.23 91 1007.3
20260506155241 17 160 0.0 1.6 0.00 0.23 0.23 91 1007.1
20260506154734 17 153 0.0 1.6 0.00 0.23 0.23 91 1007.3
20260506154458 17 170 0.0 3.2 0.03 0.23 0.23 91 1007.4
20260506153928 17 152 0.0 1.6 0.10 0.23 0.23 91 1007.8
20260506153809 17 219 0.0 1.6 0.05 0.23 0.23 91 1007.6
20260506152712 17 161 0.0 1.6 0.13 0.23 0.23 92 1007.8
20260506152205 17 205 0.0 1.6 0.18 0.23 0.23 91 1007.8
20260506151659 17 214 0.0 1.6 0.20 0.23 0.23 91 1007.9
20260506151423 17 303 0.0 1.6 0.20 0.23 0.23 91 1008.0
20260506150647 17 151 0.0 1.6 0.20 0.23 0.23 91 1008.0
20260506150142 16 112 0.0 1.6 0.23 0.23 0.23 91 1008.0
20260506145635 16 112 0.0 1.6 0.23 0.23 0.23 91 1008.1
20260506145129 16 84 0.0 1.6 0.23 0.23 0.23 90 1008.2
20260506144623 16 80 0.0 1.6 0.23 0.23 0.23 89 1008.2
20260506144341 16 142 0.0 1.6 0.20 0.20 0.20 88 1008.3
20260506143610 17 141 0.0 1.6 0.15 0.15 0.15 87 1008.4
20260506143106 17 141 0.0 1.6 0.13 0.13 0.13 87 1008.5
20260506142559 17 194 0.0 1.6 0.10 0.10 0.10 86 1008.4
20260506142053 17 165 0.0 1.6 0.05 0.05 0.05 84 1008.3
20260506141547 17 167 0.0 1.6 0.03 0.03 0.03 83 1008.3
20260506141042 18 117 0.0 1.6 0.03 0.03 0.03 82 1008.2
20260506140752 18 162 0.0 4.8 0.03 0.03 0.03 82 1008.0
20260506140030 18 91 0.0 4.8 0.00 0.00 0.00 80 1008.1
20260506135524 18 148 0.0 4.8 0.00 0.00 0.00 78 1008.1
20260506135016 18 157 0.0 4.8 0.00 0.00 0.00 76 1008.2
20260506134511 18 209 0.0 4.8 0.00 0.00 0.00 74 1008.1
20260506134005 18 162 0.0 3.2 0.00 0.00 0.00 74 1008.1
20260506133726 18 206 0.0 3.2 0.00 0.00 0.00 74 1008.1
20260506132953 18 158 0.0 3.2 0.00 0.00 0.00 73 1008.0
20260506132447 18 155 1.6 6.4 0.00 0.00 0.00 73 1007.9
20260506131941 18 49 0.0 6.4 0.00 0.00 0.00 73 1007.9
20260506131435 18 134 0.0 6.4 0.00 0.00 0.00 74 1008.0
20260506130928 18 45 0.0 6.4 0.00 0.00 0.00 74 1007.9
20260506130423 18 219 0.0 3.2 0.00 0.00 0.00 75 1007.8
20260506125917 18 7 0.0 1.6 0.00 0.00 0.00 75 1007.9
20260506125411 18 160 0.0 3.2 0.00 0.00 0.00 75 1007.8
20260506124905 18 178 0.0 4.8 0.00 0.00 0.00 75 1007.8
20260506124359 18 219 0.0 4.8 0.00 0.00 0.00 75 1007.8
20260506124348 18 235 0.0 3.2 0.00 0.00 0.00 75 1007.9
20260506123347 18 62 0.0 3.2 0.00 0.00 0.00 74 1008.0
20260506122841 18 16 0.0 3.2 0.00 0.00 0.00 74 1007.8
20260506122335 18 226 0.0 3.2 0.00 0.00 0.00 74 1007.6
20260506121828 18 255 0.0 3.2 0.00 0.00 0.00 74 1007.7
20260506121541 18 165 0.0 4.8 0.00 0.00 0.00 74 1007.5
20260506120821 18 212 0.0 4.8 0.00 0.00 0.00 74 1007.5
20260506120320 18 217 1.6 6.4 0.00 0.00 0.00 74 1007.7
20260506115820 18 34 0.0 6.4 0.00 0.00 0.00 74 1007.7
20260506115320 18 126 0.0 1.6 0.00 0.00 0.00 75 1007.8
20260506114820 18 219 0.0 4.8 0.00 0.00 0.00 75 1007.8
20260506114321 18 110 0.0 4.8 0.00 0.00 0.00 75 1007.6
20260506114041 18 8 0.0 3.2 0.00 0.00 0.00 76 1007.6
20260506113537 18 155 0.0 6.4 0.00 0.00 0.00 76 1007.6
20260506113044 18 158 0.0 6.4 0.00 0.00 0.00 75 1007.6
20260506112321 18 67 0.0 1.6 0.00 0.00 0.00 76 1007.7
20260506112049 17 171 0.0 1.6 0.00 0.00 0.00 76 1007.6
20260506111319 17 205 0.0 1.6 0.00 0.00 0.00 76 1007.6
20260506110819 17 150 0.0 1.6 0.00 0.00 0.00 75 1007.5
20260506110319 17 173 0.0 1.6 0.00 0.00 0.00 75 1007.5
20260506105817 17 151 0.0 4.8 0.00 0.00 0.00 75 1007.6
20260506105320 17 39 0.0 4.8 0.00 0.00 0.00 75 1007.6
20260506104822 17 146 0.0 3.2 0.00 0.00 0.00 75 1007.7
20260506104807 17 157 0.0 3.2 0.00 0.00 0.00 75 1007.7
20260506103814 17 172 0.0 3.2 0.00 0.00 0.00 75 1007.8
20260506103537 17 153 0.0 1.6 0.00 0.00 0.00 75 1007.9
20260506102811 17 201 0.0 1.6 0.00 0.00 0.00 75 1008.0
20260506102314 17 223 0.0 1.6 0.00 0.00 0.00 75 1007.8
20260506101811 17 188 0.0 4.8 0.00 0.00 0.00 75 1007.7
20260506101308 17 242 0.0 4.8 0.00 0.00 0.00 75 1007.7
20260506100807 17 148 0.0 3.2 0.00 0.00 0.00 75 1007.6
20260506100309 17 177 0.0 1.6 0.00 0.00 0.00 75 1007.7
20260506095807 17 148 0.0 1.6 0.00 0.00 0.00 75 1007.7
20260506095307 17 143 0.0 3.2 0.00 0.00 0.00 75 1007.7
20260506094807 17 176 0.0 3.2 0.00 0.00 0.00 75 1007.5
20260506094305 17 197 0.0 3.2 0.00 0.00 0.00 75 1007.6
20260506093803 17 160 1.6 8.0 0.00 0.00 0.00 76 1007.5
20260506093306 17 353 0.0 8.0 0.00 0.00 0.00 76 1007.6
20260506092803 17 156 0.0 1.6 0.00 0.00 0.00 76 1007.5
20260506092256 17 224 0.0 4.8 0.00 0.00 0.00 76 1007.5
20260506092014 17 124 0.0 4.8 0.00 0.00 0.00 77 1007.5
20260506091255 17 71 0.0 1.6 0.00 0.00 0.00 77 1007.5
20260506091018 17 200 0.0 3.2 0.00 0.00 0.00 77 1007.6
20260506090254 17 188 0.0 3.2 0.00 0.00 0.00 77 1007.6
20260506085753 17 156 0.0 4.8 0.00 0.00 0.00 77 1007.6
20260506085517 17 155 0.0 4.8 0.00 0.00 0.00 77 1007.6
20260506084754 17 151 0.0 1.6 0.00 0.00 0.00 77 1007.7
20260506084253 17 349 0.0 1.6 0.00 0.00 0.00 77 1007.7
20260506084015 17 150 0.0 8.0 0.00 0.00 0.00 77 1007.9
20260506083254 17 154 0.0 8.0 0.00 0.00 0.00 77 1008.0
20260506082755 17 214 0.0 6.4 0.00 0.00 0.00 77 1007.9
20260506082254 17 160 0.0 1.6 0.00 0.00 0.00 77 1007.9
20260506081754 17 228 0.0 1.6 0.00 0.00 0.00 76 1007.9
20260506081516 18 167 0.0 0.0 0.00 0.00 0.00 76 1007.9
20260506080756 18 205 0.0 0.0 0.00 0.00 0.00 76 1007.9
20260506080254 18 163 0.0 3.2 0.00 0.00 0.00 76 1007.9
20260506073511 18 216 0.0 1.6 0.00 0.00 0.00 75 1008.1
20260506073014 18 103 0.0 3.2 0.00 0.00 0.00 75 1008.0
20260506072255 18 160 0.0 3.2 0.00 0.00 0.00 75 1008.0
20260506071755 18 150 0.0 3.2 0.00 0.00 0.00 74 1008.1
20260506071253 18 156 0.0 1.6 0.00 0.00 0.00 74 1008.1
20260506070755 18 169 0.0 1.6 0.00 0.00 0.00 74 1008.1
20260506070255 18 178 0.0 3.2 0.00 0.00 0.00 74 1008.0
20260506062244 18 179 0.0 3.2 0.00 0.00 0.00 74 1008.4
20260506061745 18 158 0.0 3.2 0.00 0.00 0.00 73 1008.3
20260506061241 19 161 0.0 1.6 0.00 0.00 0.00 73 1008.3
20260506061006 19 110 0.0 4.8 0.00 0.00 0.00 73 1008.3
20260506060238 19 215 0.0 4.8 0.00 0.00 0.00 72 1008.3
20260506051147 20 221 1.6 3.2 0.00 0.00 0.00 69 1008.6
20260506050912 20 186 1.6 3.2 0.00 0.00 0.00 68 1008.7
20260506050144 20 159 0.0 6.4 0.00 0.00 0.00 68 1008.9
20260506044640 20 217 0.0 4.8 0.00 0.00 0.00 68 1008.9
20260506044139 20 2 0.0 4.8 0.00 0.00 0.00 67 1009.0
20260506043640 20 217 1.6 4.8 0.00 0.00 0.00 67 1009.0
20260506043138 20 178 1.6 4.8 0.00 0.00 0.00 67 1009.1
20260506042638 20 192 1.6 4.8 0.00 0.00 0.00 66 1008.8
20260506042137 20 193 1.6 3.2 0.00 0.00 0.00 66 1009.0
20260506041854 21 160 0.0 3.2 0.00 0.00 0.00 65 1008.9
20260506041402 21 166 0.0 3.2 0.00 0.00 0.00 64 1008.9
20260506040634 21 127 1.6 6.4 0.00 0.00 0.00 64 1008.9
20260506040132 21 5 1.6 6.4 0.00 0.00 0.00 63 1008.9
20260506035630 21 146 0.0 3.2 0.00 0.00 0.00 63 1008.9
20260506035130 21 10 0.0 3.2 0.00 0.00 0.00 62 1008.8
20260506034632 21 150 0.0 3.2 0.00 0.00 0.00 61 1008.8
20260506034126 21 210 0.0 3.2 0.00 0.00 0.00 60 1008.8
20260506033627 21 157 0.0 3.2 0.00 0.00 0.00 60 1008.8
20260506033350 21 164 1.6 3.2 0.00 0.00 0.00 59 1008.9
20260506032625 21 150 1.6 6.4 0.00 0.00 0.00 59 1008.9
20260506032124 21 165 0.0 6.4 0.00 0.00 0.00 59 1008.9
20260506031624 21 152 0.0 4.8 0.00 0.00 0.00 58 1008.8
20260506031344 21 162 0.0 4.8 0.00 0.00 0.00 58 1008.8
20260506030849 22 146 0.0 4.8 0.00 0.00 0.00 57 1008.8
20260506030125 22 166 0.0 4.8 0.00 0.00 0.00 57 1008.7
20260506025621 22 153 0.0 3.2 0.00 0.00 0.00 57 1008.6
20260506025120 22 159 0.0 3.2 0.00 0.00 0.00 57 1008.8
20260506024620 22 160 0.0 3.2 0.00 0.00 0.00 56 1008.8
20260506024330 22 150 0.0 3.2 0.00 0.00 0.00 56 1008.8
20260506024216 22 164 0.0 3.2 0.00 0.00 0.00 56 1008.8
20260506023341 22 155 0.0 3.2 0.00 0.00 0.00 56 1008.9
20260506022620 22 188 0.0 1.6 0.00 0.00 0.00 55 1008.9
20260506022120 22 218 0.0 1.6 0.00 0.00 0.00 55 1008.9
20260506021844 22 234 0.0 0.0 0.00 0.00 0.00 55 1008.8
20260506021337 22 160 0.0 1.6 0.00 0.00 0.00 54 1008.9
20260506020616 22 160 0.0 1.6 0.00 0.00 0.00 54 1008.8
20260506020117 22 231 0.0 1.6 0.00 0.00 0.00 54 1008.8
20260506015615 22 148 0.0 1.6 0.00 0.00 0.00 54 1008.8
20260506015113 22 174 0.0 1.6 0.00 0.00 0.00 53 1008.7
20260506014613 23 214 0.0 3.2 0.00 0.00 0.00 53 1008.5
20260506014111 23 192 0.0 3.2 0.00 0.00 0.00 53 1008.5
20260506013612 23 155 0.0 3.2 0.00 0.00 0.00 52 1008.5
20260506013112 23 160 0.0 3.2 0.00 0.00 0.00 52 1008.4
20260506012608 23 161 0.0 3.2 0.00 0.00 0.00 52 1008.4
20260506012105 23 160 0.0 3.2 0.00 0.00 0.00 52 1008.3
20260506011607 23 156 0.0 3.2 0.00 0.00 0.00 51 1008.3
20260506011106 23 170 0.0 9.7 0.00 0.00 0.00 51 1008.2
20260506010605 23 156 0.0 9.7 0.00 0.00 0.00 51 1008.2
20260506010327 23 155 0.0 6.4 0.00 0.00 0.00 50 1008.2
20260506005604 23 159 0.0 6.4 0.00 0.00 0.00 50 1008.2
20260506005104 23 162 0.0 3.2 0.00 0.00 0.00 50 1008.1
20260506004604 23 160 0.0 1.6 0.00 0.00 0.00 50 1008.1
20260506004326 23 160 0.0 1.6 0.00 0.00 0.00 49 1008.0
20260506003601 23 168 0.0 4.8 0.00 0.00 0.00 49 1007.9
20260506003316 24 176 0.0 4.8 0.00 0.00 0.00 49 1007.9
20260506002548 24 185 0.0 3.2 0.00 0.00 0.00 48 1008.0
20260506002043 24 158 0.0 3.2 0.00 0.00 0.00 48 1007.9
20260506001537 24 141 0.0 1.6 0.00 0.00 0.00 48 1007.8
20260506001031 24 129 0.0 4.8 0.00 0.00 0.00 47 1007.8
20260506000525 25 147 0.0 4.8 0.00 0.00 0.00 47 1007.8
20260506000018 25 155 0.0 3.2 0.00 0.00 0.00 46 1007.7
20260505235512 25 160 0.0 3.2 0.00 0.00 0.00 46 1007.7
20260505235007 25 214 1.6 4.8 0.00 0.00 0.00 46 1007.7
20260505234501 25 229 0.0 4.8 0.00 0.00 0.00 45 1007.8
20260505233955 25 159 0.0 3.2 0.00 0.00 0.00 45 1007.6
20260505233449 25 46 0.0 3.2 0.00 0.00 0.00 44 1007.6
20260505232942 25 163 0.0 3.2 0.00 0.00 0.00 44 1007.6
20260505232437 25 153 0.0 3.2 0.00 0.00 0.00 44 1007.6